Content
SEND FEEDBACK

Daily
Averages
Monthly
Summary
United States of America

FEDERAL DAM, MINNESOTA


Home > North America > United States > Minnesota
Elevation: 1300 feet     Latitude: 47 15N     Longitude: 094 13W

WEATHER
 
SELECT A DAY
Number of Records: 399,935;   Date Range: 10/9/98 - 12/19/14
 
SHARE

PRINT THIS DATA

[ ← Previous Day ]
WEATHER ALMANAC - FEBRUARY 13, 2013
[ Next Day → ]
[ °C ]   °F
Weather ElementAverageHighLow
Temperature26.3 °F37.4 °F (1:36 pm)8.6 °F (7:36 am)
Dewpoint21.1 °F26.6 °F (6:16 pm)6.8 °F (7:36 am)
Humidity81.4 %100 % (5:56 am)60 % (1:36 pm)
Barometer29.62 in29.70 in (12:36 am)29.56 in (2:16 pm)
Wind Speed1.5 mph6.9 mph (1:56 am)
Weather ElementAverage
Visibility9.4 mi
Wind DirectionENE (72.4 °)

Weather ElementTotal
Precipitation---
Heating Degree Days42 (Base 65)
Averaged from 70 records on February 13, 2013
WEATHER CONDITIONS BREAKOUT
WIND DIRECTION BREAKOUT
WEATHER BY HOUR - FEBRUARY 13, 2013
[ °C ]   °F
Local TimeTemperatureDewpointHumidityBarometerVisibilityWind DirectionWind SpeedGust SpeedPrecipitationEventsConditions
12:36 AM24.8 °F19.4 °F80 %29.70 in10.0 miWSW (240°)4.6 mphOvercast
12:56 AM24.8 °F19.4 °F80 %29.69 in10.0 miSW (230°)4.6 mphOvercast
1:16 AM24.8 °F19.4 °F80 %29.68 in10.0 miSW (230°)4.6 mphOvercast
1:36 AM24.8 °F19.4 °F80 %29.68 in10.0 miSW (230°)4.6 mphOvercast
1:56 AM23.0 °F19.4 °F86 %29.68 in10.0 miSW (230°)6.9 mphOvercast
2:16 AM24.8 °F21.2 °F86 %29.67 in10.0 miSW (230°)5.8 mphOvercast
2:36 AM24.8 °F21.2 °F86 %29.67 in10.0 miWSW (240°)5.8 mphOvercast
2:56 AM24.8 °F21.2 °F86 %29.68 in10.0 miWest (260°)4.6 mphOvercast
3:16 AM24.8 °F21.2 °F86 %29.67 in10.0 miSW (230°)4.6 mphOvercast
3:36 AM24.8 °F21.2 °F86 %29.67 in10.0 miWSW (240°)4.6 mphOvercast
3:56 AM24.8 °F21.2 °F86 %29.67 in10.0 miWSW (240°)4.6 mphMostly Cloudy
4:16 AM23.0 °F19.4 °F86 %29.66 in10.0 miWSW (250°)4.6 mphClear
4:36 AM21.2 °F19.4 °F93 %29.66 in10.0 miCalmClear
4:56 AM21.2 °F19.4 °F93 %29.65 in10.0 miWSW (240°)3.5 mphClear
5:16 AM19.4 °F17.6 °F93 %29.65 in7.0 miCalmClear
5:35 AM17.6 °F15.8 °F93 %29.65 in7.0 miSW (230°)3.5 mphClear
5:56 AM15.8 °F15.8 °F100 %29.65 in4.0 miCalmClear
6:16 AM14.0 °F12.2 °F93 %29.64 in4.0 miCalmClear
6:36 AM12.2 °F10.4 °F92 %29.63 in5.0 miWSW (240°)3.5 mphClear
6:56 AM12.2 °F10.4 °F92 %29.64 in5.0 miCalmClear
7:15 AM12.2 °F10.4 °F92 %29.63 in7.0 miCalmClear
7:36 AM8.6 °F6.8 °F92 %29.63 in10.0 miCalmClear
7:56 AM8.6 °F6.8 °F92 %29.63 in10.0 miCalmClear
8:16 AM12.2 °F10.4 °F92 %29.63 in10.0 miCalmClear
8:36 AM12.2 °F10.4 °F92 %29.63 in5.0 miCalmClear
8:56 AM19.4 °F17.6 °F93 %29.63 in4.0 miCalmClear
9:16 AM21.2 °F21.2 °F100 %29.62 in10.0 miCalmClear
9:36 AM24.8 °F21.2 °F86 %29.62 in10.0 miSW (220°)3.5 mphClear
9:56 AM26.6 °F21.2 °F80 %29.62 in10.0 miCalmClear
10:16 AM28.4 °F21.2 °F74 %29.61 in10.0 miCalmClear
10:36 AM28.4 °F21.2 °F74 %29.62 in10.0 miCalmClear
11:16 AM30.2 °F24.8 °F80 %29.61 in10.0 miCalmClear
11:36 AM32.0 °F24.8 °F75 %29.61 in10.0 miCalmClear
11:56 AM33.8 °F24.8 °F70 %29.60 in10.0 miCalmClear
12:16 PM33.8 °F24.8 °F70 %29.60 in10.0 miCalmClear
12:36 PM33.8 °F24.8 °F70 %29.59 in10.0 miCalmClear
12:56 PM35.6 °F24.8 °F65 %29.58 in10.0 miCalmClear
1:16 PM35.6 °F24.8 °F65 %29.57 in10.0 miCalmClear
1:36 PM37.4 °F24.8 °F60 %29.57 in10.0 miWSW (250°)3.5 mphClear
1:56 PM35.6 °F24.8 °F65 %29.57 in10.0 miCalmClear
2:16 PM35.6 °F24.8 °F65 %29.56 in10.0 miCalmClear
2:36 PM35.6 °F24.8 °F65 %29.56 in10.0 miCalmClear
2:56 PM35.6 °F24.8 °F65 %29.56 in10.0 miCalmClear
3:16 PM35.6 °F24.8 °F65 %29.57 in10.0 miCalmClear
3:36 PM35.6 °F24.8 °F65 %29.57 in10.0 miCalmClear
3:56 PM33.8 °F24.8 °F70 %29.57 in10.0 miNNW (330°)3.5 mphClear
4:16 PM33.8 °F24.8 °F70 %29.57 in10.0 miCalmClear
4:36 PM33.8 °F24.8 °F70 %29.57 in10.0 miCalmClear
4:56 PM33.8 °F24.8 °F70 %29.57 in10.0 miNorth (360°)3.5 mphClear
5:16 PM32.0 °F24.8 °F75 %29.58 in10.0 miCalmClear
5:36 PM30.2 °F24.8 °F80 %29.58 in10.0 miCalmClear
5:56 PM30.2 °F24.8 °F80 %29.58 in10.0 miNorth (10°)3.5 mphScattered Clouds
6:16 PM30.2 °F26.6 °F86 %29.59 in10.0 miNNE (30°)4.6 mphMostly Cloudy
6:36 PM30.2 °F26.6 °F86 %29.59 in10.0 miNNE (30°)4.6 mphOvercast
6:56 PM30.2 °F24.8 °F80 %29.60 in10.0 miCalmOvercast
7:16 PM30.2 °F24.8 °F80 %29.60 in10.0 miCalmScattered Clouds
7:36 PM30.2 °F24.8 °F80 %29.60 in10.0 miCalmScattered Clouds
7:56 PM30.2 °F24.8 °F80 %29.61 in10.0 miCalmMostly Cloudy
8:16 PM30.2 °F24.8 °F80 %29.61 in10.0 miNorth (10°)3.5 mphOvercast
8:36 PM30.2 °F24.8 °F80 %29.62 in10.0 miCalmOvercast
8:56 PM30.2 °F24.8 °F80 %29.62 in10.0 miCalmOvercast
9:16 PM28.4 °F24.8 °F86 %29.62 in10.0 miCalmOvercast
9:36 PM26.6 °F23.0 °F86 %29.63 in10.0 miCalmMostly Cloudy
9:56 PM26.6 °F23.0 °F86 %29.64 in10.0 miCalmMostly Cloudy
10:16 PM26.6 °F23.0 °F86 %29.64 in10.0 miCalmScattered Clouds
10:36 PM24.8 °F21.2 °F86 %29.65 in10.0 miCalmScattered Clouds
10:56 PM24.8 °F21.2 °F86 %29.66 in10.0 miCalmScattered Clouds
11:16 PM24.8 °F21.2 °F86 %29.66 in10.0 miCalmMostly Cloudy
11:36 PM23.0 °F19.4 °F86 %29.66 in10.0 miCalmScattered Clouds
11:56 PM21.2 °F19.4 °F93 %29.66 in10.0 miWest (270°)3.5 mphScattered Clouds
Hourly data recorded from KXVG, located miles away from Federal Dam, Minnesota







STORIES FROM OUR PARTNERS